Location: L�ma
(15.0703°N, 12.4324°W)
Time: 01:37:45
(UTC+00:00)

Daily predictions for brighter satellites

Satellite Brightness Start Highest point End
(mag) Time Altitude Azimuth Time Altitude Azimuth Time Altitude Azimuth
Cosmos 2360 Rocket 4.4 04:15:01 15° NNE 04:15:01 15° NNE 04:15:58 10° NNE
H-2A R/B (2) 3.0 04:31:41 51° S 04:31:41 51° S 04:43:59 10° SE
ATLAS CENTAUR Rocket 4.5 04:28:22 33° NW 04:32:25 39° NNW 04:38:10 10° NE
CZ-2C R/B 3.8 04:27:52 10° NNE 04:30:36 32° NNE 04:30:36 32° NNE
Atlas Centaur 2 4.0 04:36:06 12° SE 04:36:06 12° SE 04:37:39 10° ESE
Hubble Space Telescope 2.9 04:39:45 22° NE 04:39:45 22° NE 04:41:24 10° NE
Cosmos 2263 Rocket 2.2 04:39:24 75° ENE 04:39:32 76° ENE 04:45:12 10° SSE
Chandra Rocket (1) 4.3 04:34:08 29° NW 04:41:54 56° N 04:47:24 10° E
Aurora 2 Rocket 4.4 04:45:40 20° SE 04:45:40 20° SE 04:47:49 10° E
Cosmos 1898 Rocket 4.1 04:41:18 10° N 04:46:28 55° ENE 04:51:38 10° SSE
Meteor 1-11 Rocket 3.7 04:47:33 10° N 04:53:10 81° E 04:58:42 10° S
Cosmos 2219 Rocket 2.1 04:56:03 40° SSW 04:58:12 88° ESE 05:03:52 10° NNE
deb Chang Zheng 4 3.6 04:57:52 10° NNE 05:02:05 73° ESE 05:03:38 38° S
Intercosmos 25 3.8 04:56:16 10° S 05:02:16 81° E 05:06:09 10° N
Cosmos 1937 Rocket 4.0 05:00:45 10° N 05:05:48 59° ENE 05:10:51 10° SSE
Cosmos 2100 Rocket 4.1 05:01:49 10° N 05:08:10 77° E 05:14:26 10° S
ERS-2 3.5 05:04:48 10° SSE 05:08:14 40° ENE 05:11:40 10° N
Cosmos 1536 2.7 05:04:42 10° N 05:08:45 87° W 05:12:47 10° S
EPKM 3.7 05:07:39 36° SSW 05:09:29 60° SE 05:25:01 10° ENE
BREEZE-M DEB (TANK) 4.5 05:10:06 24° NNW 05:10:06 24° NNW 05:14:09 10° NNE
SJ-6F 4.4 05:05:37 10° N 05:09:14 65° NNW 05:09:14 65° NNW
Cosmos 2123 Rocket 3.9 05:04:33 10° S 05:10:46 90° ESE 05:17:03 10° N
Cosmos 1459 Rocket 4.1 05:05:57 10° N 05:11:58 74° E 05:18:01 10° S
Cosmos 2227 4.5 05:12:59 42° WSW 05:12:59 42° WSW 05:17:41 10° S
ARIANE 5 R/B 4.2 05:14:27 22° SSW 05:14:49 22° S 05:17:59 10° SE
ADEOS Rocket 3.8 05:08:16 10° SSE 05:15:21 62° ENE 05:21:44 10° N
Cosmos 2237 Rocket 3.9 05:13:00 10° SSE 05:18:01 33° ESE 05:23:00 10° NE
Skynet4D Del rocket 4.4 05:15:23 25° NW 05:18:09 45° NNE 05:23:44 10° E
Cosmos 1802 Rocket 4.4 05:12:14 10° N 05:18:27 67° E 05:24:46 10° SSE
USA 32 4.1 05:14:03 10° NNW 05:19:05 49° W 05:24:06 10° SSW
COSMOS 2428 2.6 05:17:08 20° SSW 05:21:09 64° WNW 05:26:48 10° N
Landsat 5 3.8 05:19:00 10° S 05:23:19 47° W 05:27:39 10° NNW
CZ-4B R/B 4.1 05:18:54 10° NNE 05:23:23 83° ESE 05:27:51 10° S
Cosmos 2242 Rocket 3.5 05:24:11 10° SSW 05:28:31 62° W 05:32:51 10° N
Cosmos 2333 Rocket 2.7 05:28:00 28° WSW 05:30:09 37° WNW 05:35:27 10° N
Cosmos 1733 Rocket 3.0 05:29:11 10° NNW 05:33:24 57° W 05:37:37 10° S
Cosmos 1743 3.1 05:30:10 10° N 05:33:56 65° E 05:37:44 10° SSE
GPS 2-14 Rocket1 4.5 05:38:42 12° SSW 05:41:41 26° SSE 05:45:10 10° ESE
H-2A R/B 2.9 05:38:32 10° SSW 05:42:11 27° W 05:45:54 10° NW
METEOR-M 4.1 05:37:25 10° N 05:42:41 63° WNW 05:47:57 10° SSW
SWIFT 2.9 05:41:08 19° SW 05:43:54 51° SSE 05:48:02 10° E
ADEOS 4.2 05:40:36 10° NNW 05:45:11 32° WNW 05:49:46 10° SW
OAO 1 Rocket 4.4 05:42:02 16° SW 05:46:16 86° SE 05:51:37 10° ENE
OAO 2 Rocket 3.8 05:42:38 12° SW 05:47:32 63° SE 05:52:47 10° ENE
Cosmos 2173 Rocket 4.3 05:43:53 10° NNW 05:49:53 45° W 05:55:54 10° SSW
H-2A R/B 4.4 05:47:38 10° NE 05:51:44 36° E 05:55:52 10° SSE
ATLAS 2AS CENTAUR R/B 3.5 05:45:59 10° NNW 05:52:42 52° ENE 05:58:55 10° SE
SL-8 R/B 3.7 05:48:46 10° NW 05:53:31 84° NE 05:58:17 10° SE
Okean 3 4.0 05:53:26 10° S 05:57:41 65° E 06:01:56 10° NNE
GPS 2-15 Rocket1 3.4 05:54:23 16° W 05:57:56 52° SSW 06:02:28 10° ESE
SAR-Lupe-1 4.0 05:56:27 10° SSE 05:59:59 88° ESE 06:03:33 10° NNW
ALOS 3.2 05:58:27 10° NNW 06:02:16 25° WNW 06:06:05 10° SW
GPS 2-18 Rocket1 3.4 05:59:58 14° W 06:03:05 53° SSW 06:06:55 10° ESE
Cosmos 1975 3.1 06:04:13 10° N 06:08:10 74° E 06:12:07 10° S
GPS 2-12 Rocket1 3.0 06:04:58 10° WSW 06:09:24 81° SSE 06:13:50 10° ENE
Aureole 1 4.4 06:11:00 10° SSW 06:14:00 55° WNW 06:17:32 10° N
X-37B 3.1 06:12:49 10° N 06:15:16 20° NE 06:17:42 10° E
COSMO-SKYMED 1 3.2 06:12:01 10° SSE 06:16:18 63° ENE 06:20:34 10° N
Cosmos 372 Rocket 4.1 06:11:39 10° NNW 06:16:35 52° W 06:21:29 10° S
Hubble Space Telescope 2.8 06:16:28 10° NW 06:19:05 16° NNW 06:21:42 10° NNE
Delta 202 3.7 06:14:01 10° WNW 06:19:33 70° N 06:24:54 10° E
ARIANE 5 R/B 4.4 06:28:37 10° WSW 06:38:09 20° SSW 06:41:36 10° SSE
